TimeCDT,TemperatureF,Dew PointF,Humidity,Sea Level PressureIn,VisibilityMPH,Wind Direction,Wind SpeedMPH,Gust SpeedMPH,PrecipitationIn,Events,Conditions,WindDirDegrees,DateUTC
12:15 AM,63.1,61.3,94,30.05,10.0,Calm,Calm,-,N/A,,Clear,0,2013-09-03 05:15:00
12:35 AM,62.6,61.2,95,30.06,10.0,Calm,Calm,-,N/A,,Clear,0,2013-09-03 05:35:00
12:55 AM,62.8,61.0,94,30.06,10.0,Calm,Calm,-,N/A,,Clear,0,2013-09-03 05:55:00
1:15 AM,63.7,61.3,92,30.06,10.0,Calm,Calm,-,N/A,,Clear,0,2013-09-03 06:15:00
1:35 AM,62.8,60.6,93,30.06,10.0,Calm,Calm,-,N/A,,Clear,0,2013-09-03 06:35:00
1:55 AM,61.7,60.1,94,30.06,10.0,Calm,Calm,-,N/A,,Clear,0,2013-09-03 06:55:00
2:15 AM,60.3,59.2,96,30.06,10.0,Calm,Calm,-,N/A,,Clear,0,2013-09-03 07:15:00
2:35 AM,59.2,58.8,99,30.06,10.0,Calm,Calm,-,N/A,,Clear,0,2013-09-03 07:35:00
2:55 AM,59.9,59.2,97,30.07,10.0,Calm,Calm,-,N/A,,Clear,0,2013-09-03 07:55:00
3:15 AM,59.9,59.2,97,30.07,10.0,Calm,Calm,-,N/A,,Clear,0,2013-09-03 08:15:00
3:35 AM,59.2,58.6,98,30.07,10.0,Calm,Calm,-,N/A,,Clear,0,2013-09-03 08:35:00
3:55 AM,59.7,59.0,97,30.06,10.0,ESE,4.6,-,N/A,,Clear,110,2013-09-03 08:55:00
4:15 AM,59.5,58.5,96,30.06,10.0,Calm,Calm,-,N/A,,Clear,0,2013-09-03 09:15:00
4:35 AM,58.8,58.3,98,30.07,10.0,Calm,Calm,-,N/A,,Clear,0,2013-09-03 09:35:00
4:55 AM,58.5,57.6,97,30.07,10.0,Calm,Calm,-,N/A,,Clear,0,2013-09-03 09:55:00
5:15 AM,58.5,57.7,97,30.07,10.0,Calm,Calm,-,N/A,,Clear,0,2013-09-03 10:15:00
5:35 AM,58.1,57.4,97,30.07,10.0,Calm,Calm,-,N/A,,Clear,0,2013-09-03 10:35:00
5:55 AM,58.3,57.4,97,30.08,10.0,Calm,Calm,-,N/A,,Clear,0,2013-09-03 10:55:00
6:15 AM,58.1,57.2,97,30.08,10.0,Calm,Calm,-,N/A,,Clear,0,2013-09-03 11:15:00
6:35 AM,57.4,56.8,98,30.09,10.0,Calm,Calm,-,N/A,,Clear,0,2013-09-03 11:35:00
6:55 AM,55.6,54.5,96,30.10,10.0,Calm,Calm,-,N/A,,Clear,0,2013-09-03 11:55:00
7:15 AM,55.6,55.2,99,30.10,10.0,Calm,Calm,-,N/A,,Clear,0,2013-09-03 12:15:00
7:35 AM,56.7,56.3,99,30.11,10.0,Calm,Calm,-,N/A,,Clear,0,2013-09-03 12:35:00
7:55 AM,58.6,58.1,98,30.11,10.0,Calm,Calm,-,N/A,,Clear,0,2013-09-03 12:55:00
8:15 AM,60.8,59.4,95,30.11,10.0,Calm,Calm,-,N/A,,Clear,0,2013-09-03 13:15:00
8:35 AM,62.6,61.0,94,30.12,10.0,Calm,Calm,-,N/A,,Clear,0,2013-09-03 13:35:00
8:55 AM,64.6,61.7,90,30.12,10.0,Calm,Calm,-,N/A,,Clear,0,2013-09-03 13:55:00
9:15 AM,67.6,61.3,80,30.12,10.0,South,3.5,-,N/A,,Clear,180,2013-09-03 14:15:00
9:35 AM,68.7,62.4,80,30.12,10.0,SSW,4.6,-,N/A,,Clear,200,2013-09-03 14:35:00
9:55 AM,70.2,62.6,77,30.12,10.0,South,5.8,-,N/A,,Clear,190,2013-09-03 14:55:00
10:15 AM,72.3,62.8,72,30.12,10.0,South,9.2,-,N/A,,Clear,180,2013-09-03 15:15:00
10:35 AM,72.7,63.0,71,30.12,10.0,South,5.8,-,N/A,,Clear,170,2013-09-03 15:35:00
10:55 AM,74.3,61.3,64,30.12,10.0,South,5.8,-,N/A,,Clear,190,2013-09-03 15:55:00
11:15 AM,75.2,59.4,58,30.12,10.0,South,9.2,-,N/A,,Clear,190,2013-09-03 16:15:00
11:35 AM,76.1,59.0,55,30.12,10.0,South,6.9,-,N/A,,Clear,180,2013-09-03 16:35:00
11:55 AM,77.0,59.2,54,30.11,10.0,SSW,8.1,-,N/A,,Clear,210,2013-09-03 16:55:00
12:15 PM,77.7,59.7,54,30.11,10.0,South,5.8,-,N/A,,Clear,190,2013-09-03 17:15:00
12:35 PM,78.3,60.3,54,30.11,10.0,SW,5.8,-,N/A,,Clear,220,2013-09-03 17:35:00
12:55 PM,79.2,59.9,52,30.10,10.0,South,9.2,-,N/A,,Clear,190,2013-09-03 17:55:00
1:15 PM,79.7,59.7,50,30.09,10.0,South,6.9,-,N/A,,Clear,180,2013-09-03 18:15:00
1:35 PM,80.6,59.7,49,30.09,10.0,SSE,9.2,-,N/A,,Clear,160,2013-09-03 18:35:00
1:55 PM,81.5,60.3,48,30.08,10.0,South,9.2,-,N/A,,Clear,170,2013-09-03 18:55:00
2:15 PM,81.9,59.5,47,30.07,10.0,SSE,9.2,-,N/A,,Clear,160,2013-09-03 19:15:00
2:35 PM,82.2,59.0,45,30.07,10.0,South,4.6,-,N/A,,Clear,180,2013-09-03 19:35:00
2:55 PM,82.9,58.3,43,30.07,10.0,SSE,6.9,-,N/A,,Clear,150,2013-09-03 19:55:00
3:15 PM,82.9,56.8,41,30.07,10.0,SSE,4.6,-,N/A,,Clear,150,2013-09-03 20:15:00
3:35 PM,83.5,56.5,40,30.06,10.0,South,9.2,-,N/A,,Clear,180,2013-09-03 20:35:00
3:55 PM,83.7,57.0,40,30.06,10.0,SSW,3.5,-,N/A,,Clear,200,2013-09-03 20:55:00
4:15 PM,83.8,57.9,41,30.05,10.0,South,4.6,-,N/A,,Clear,190,2013-09-03 21:15:00
4:35 PM,84.0,58.8,42,30.04,10.0,SSE,6.9,-,N/A,,Clear,150,2013-09-03 21:35:00
4:55 PM,84.4,57.7,40,30.04,10.0,South,4.6,-,N/A,,Clear,180,2013-09-03 21:55:00
5:15 PM,84.4,59.0,42,30.04,10.0,SSE,5.8,-,N/A,,Clear,160,2013-09-03 22:15:00
5:35 PM,84.2,58.8,42,30.04,10.0,South,4.6,-,N/A,,Clear,170,2013-09-03 22:35:00
5:55 PM,83.7,57.9,41,30.04,10.0,ESE,3.5,-,N/A,,Clear,120,2013-09-03 22:55:00
6:15 PM,83.3,60.3,46,30.05,10.0,SSE,4.6,-,N/A,,Clear,150,2013-09-03 23:15:00
6:35 PM,82.9,59.2,44,30.05,10.0,SE,4.6,-,N/A,,Clear,130,2013-09-03 23:35:00
6:55 PM,82.0,59.5,46,30.04,10.0,SE,3.5,-,N/A,,Clear,130,2013-09-03 23:55:00
7:15 PM,81.5,58.6,46,30.04,10.0,SE,3.5,-,N/A,,Clear,130,2013-09-04 00:15:00
7:35 PM,80.6,60.4,50,30.04,10.0,ESE,4.6,-,N/A,,Clear,120,2013-09-04 00:35:00
7:55 PM,77.7,62.8,60,30.04,10.0,ESE,4.6,-,N/A,,Clear,110,2013-09-04 00:55:00
8:15 PM,75.4,63.7,67,30.04,10.0,ESE,4.6,-,N/A,,Clear,120,2013-09-04 01:15:00
8:35 PM,74.5,63.0,67,30.04,10.0,SE,4.6,-,N/A,,Clear,130,2013-09-04 01:35:00
8:55 PM,73.9,62.4,67,30.04,10.0,SE,4.6,-,N/A,,Clear,130,2013-09-04 01:55:00
9:15 PM,73.4,62.4,68,30.05,10.0,ESE,3.5,-,N/A,,Clear,120,2013-09-04 02:15:00
9:35 PM,72.7,62.2,70,30.05,10.0,ESE,3.5,-,N/A,,Clear,110,2013-09-04 02:35:00
9:55 PM,70.7,63.3,77,30.05,10.0,Calm,Calm,-,N/A,,Clear,0,2013-09-04 02:55:00
10:15 PM,71.1,62.6,75,30.06,10.0,Calm,Calm,-,N/A,,Clear,0,2013-09-04 03:15:00
10:35 PM,68.9,63.5,83,30.06,10.0,Calm,Calm,-,N/A,,Clear,0,2013-09-04 03:35:00
10:55 PM,69.1,63.5,82,30.06,10.0,Calm,Calm,-,N/A,,Clear,0,2013-09-04 03:55:00
11:15 PM,68.0,63.7,86,30.06,10.0,SSE,3.5,-,N/A,,Clear,150,2013-09-04 04:15:00
11:35 PM,68.9,63.5,83,30.06,10.0,SE,3.5,-,N/A,,Clear,140,2013-09-04 04:35:00
11:55 PM,67.3,63.3,87,30.07,10.0,SSE,4.6,-,N/A,,Clear,150,2013-09-04 04:55:00